Weather in Pompei

Italy     40°45′03″N   14°29′19″E
temp.,
°C
wind,
m/s
gust,
m/s
humid.,
%
clouds,
%
prec.,
mm/h
press.,
hPa
HPBL,
m
17 june, thu
thu1723:00+21wsw006583 0.0 101735
02:00+20se117252 0.0 101756
05:00+19ese11770 0.0 101732
08:00+21w12690 0.0 1018458
11:00+25wsw22530 0.0 1018951
14:00+27wsw33440 0.0 10171301
17:00+25wsw33495 0.0 1017657
20:00+23wnw235579 0.0 1018471
18 june, fri
fri1823:00+22n015934 0.0 101855
02:00+21sw117174 0.0 101855
05:00+20ne0075100 0.0 101829
08:00+23nw115891 0.0 1018305
11:00+26w2245100 0.0 1018818
14:00+27wsw43427 0.0 10181016
17:00+26w444489 0.0 1017739
20:00+25wnw11496 0.0 1018449
19 june, sat
sat1923:00+23wnw11564 0.0 101827
02:00+22nw115762 0.0 101723
05:00+21nne21623 0.0 101726
08:00+24wnw00515 0.0 1017210
11:00+29wsw21414 0.0 1016636
14:00+28wsw43462 0.0 1016810
17:00+28w334220 0.0 1016669
20:00+26w22505 0.0 1015273
20 june, sun
sun2023:00+24n115713 0.0 101658
02:00+23ssw11635 0.0 101530
05:00+22se11665 0.0 101521
08:00+24w115772 0.0 1015270
11:00+28wsw32470 0.0 1015672
14:00+29wsw224662 0.0 1014687
17:00+31s2139100 0.0 1012612
20:00+26ssw115569 0.0 1013181
21 june, mon
mon2123:00+24w11618 0.0 1014100
02:00+23nnw1166100 0.0 101437
05:00+24e3361100 0.0 101261
08:00+25w2361100 0.0 1015259
11:00+29s2243100 0.0 1014428
14:00+30ssw1240100 0.0 1013420
17:00+30ssw444297 0.0 1014621
20:00+30nne3338100 0.0 1012132